Regional Weather Roundup
Issued by NWS

Home | Current Version | Previous Version | Text Only | Print | Product List | Glossary Off
Versions: 1 2 3 4 5 6 7 8 9 10 11 12 13 14 15 16 17 18 19 20 21 22 23 24 25 26 27 28 29 30 31 32 33 34 35 36 37 38 39 40 41 42 43 44 45 46 47 48 49 50

000
ASUS43 KIND 050759
RWRIN

WEATHER ROUNDUP FOR INDIANA
NATIONAL WEATHER SERVICE INDIANAPOLIS IN
300 AM EST THU MAR 05 2015

NOTE: "FAIR" INDICATES FEW OR NO CLOUDS BELOW 12,000 FEET WITH NO
SIGNIFICANT WEATHER AND/OR OBSTRUCTIONS TO VISIBILITY.

* - STATION DOES NOT REPORT WEATHER SUCH AS PRECIPITATION OR FOG.

+ - STATION NOT QUALITY CONTROLLED BY THE NATIONAL WEATHER SERVICE.
    USE DATA WITH CAUTION...ESPECIALLY DEWPOINT AND RELATIVE
    HUMIDITY OBSERVATIONS.

INZ001>003-010>013-019-020-050900-
NORTHWEST INDIANA

CITY           SKY/WX    TMP DP  RH WIND       PRES   REMARKS
MONTICELLO +   PTCLDY    11   4  74 NW6       30.32S WCI   1
VALPARAISO     NOT AVBL

$$

LMZ046-743>745-050900-
SOUTHERN LAKE MICHIGAN

STATION/POSITION TIME  TEMP WIND        PRES
                       AIR  DIR/SP/G
                 (UTC) (F)  (DEG/KT/KT) (MB)
MICHIGAN CITY    0700   15  270/ 11/ 12   N/A

$$

INZ004-005-014>016-021>024-050900-
NORTH CENTRAL INDIANA

CITY           SKY/WX    TMP DP  RH WIND       PRES   REMARKS
GOSHEN         MOCLDY    12   2  64 N6        30.29F WCI   3
SOUTH BEND     CLOUDY    15   5  64 N7        30.30F WCI   5

$$

INZ006>009-017-018-025>027-050900-
NORTHEAST INDIANA

CITY           SKY/WX    TMP DP  RH WIND       PRES   REMARKS
ANGOLA *+      CLEAR     10   0  61 N5        30.27S WCI   2
FORT WAYNE     CLOUDY    17   5  59 N12       30.28F WCI   4

$$

INZ028-029-035-036-043>045-051>053-050900-
WEST CENTRAL INDIANA

CITY           SKY/WX    TMP DP  RH WIND       PRES   REMARKS
CRAWFORDSVL +  MOCLDY    13  -1  52 N8        30.33R WCI   2
GREENCASTLE +  CLOUDY    18   1  49 N13       30.32R WCI   4
LAFAYETTE      MOCLDY    13   4  67 N10       30.34S WCI   0
TERRE HAUTE    CLOUDY    17   3  54 N14G22    30.35R WCI   3

$$

INZ030>032-037>040-046>048-054>057-064-065-050900-
CENTRAL INDIANA

CITY           SKY/WX    TMP DP  RH WIND       PRES   REMARKS
GREENWOOD *+   CLOUDY    19   5  53 N8        30.29S WCI   9
INDIANAPOLIS   CLOUDY    18   7  62 N10       30.29S WCI   6
-EAGLE CREEK   CLOUDY    17   7  64 N10       30.30R WCI   5
KOKOMO *+        N/A    N/A N/A N/A MISG        N/A
MT COMFORT *+  CLOUDY    19   5  53 N9        30.29R WCI   9
SHELBYVILLE    CLOUDY    21   9  59 N10       30.29R WCI  10

$$

INZ033-034-041-042-049-050-058-059-050900-
EAST CENTRAL INDIANA

CITY           SKY/WX    TMP DP  RH WIND       PRES   REMARKS
MUNCIE         CLOUDY    19   8  62 N9        30.27R WCI   8

$$

INZ060-061-067>069-081>083-085>088-050900-
SOUTHWEST INDIANA

CITY           SKY/WX    TMP DP  RH WIND       PRES   REMARKS
EVANSVILLE     CLOUDY    20   7  57 N13G20    30.33R WCI   7
HUNTINGBURG *+ CLOUDY    19   9  63 N9G16     30.30S WCI   9

$$

INZ062-063-066-070>080-084-089>092-050900-
SOUTH CENTRAL AND SOUTHEAST INDIANA

CITY           SKY/WX    TMP DP  RH WIND       PRES   REMARKS
BLOOMINGTON    CLOUDY    18   9  68 N13       30.29R WCI   5
SEYMOUR +      CLOUDY    23  10  58 N10       30.29R WCI  12

$$




USA.gov is the U.S. government's official web portal to all federal, state and local government web resources and services.